Location: Melque
(41.0517°N, 4.4694°W)
Time: 02:40:31
(UTC+00:00)

Cosmos 2266 Rocket - Pass Details

Date: 11 December 2025
Orbit: 933 x 1007 km, 82.9° (Epoch: 14 January)

Event Time Altitude Azimuth Distance (km) Brightness Sun altitude
Rises 17:40:22 0° 353° (N) 3,648 6.8 -9.4°
Reaches altitude 10° 17:42:53 10° 354° (N) 2,688 6.2 -9.9°
Maximum altitude 17:49:02 82° 82° (E) 956 3.9 -10.9°
Drops below altitude 10° 17:55:03 10° 171° (S) 2,636 6.4 -12.0°
Sets 17:57:31 0° 172° (S) 3,572 7.1 -12.4°
